Home   Weather   Alicante   Past weeks

Flag for Spain Past Weather in Alicante, Spain — Yesterday and Last 2 Weeks

Now
55 °F

Clear.


Feels Like: 54 °F
Forecast: 54 / 71 °F
Wind: 6 mph from North

Location: Alicante / El Altet

Current Time: Apr 24, 2017 at 3:23:59 am

Latest Report: Apr 24, 2017 at 3:00 am


Visibility: 10 mi

Pressure: 30.04 "Hg

Humidity: 82%

Dew Point: 50 °F

Location of AlicanteLocation

Past Weather in Alicante — Graph

°F

Alicante Temperature Yesterday

Maximum temperature yesterday: 66 °F (at 2:00 pm)
Minimum temperature yesterday: 48 °F (at 5:00 am)
Average temperature yesterday: 58 °F

High & Low Weather Summary for the Past Weeks

 TemperatureHumidityPressure
High75 °F (Apr 14, 3:30 pm)100% (Apr 13, 7:50 am)30.36 "Hg (Apr 13, 7:50 am)
Low48 °F (Apr 9, 5:30 am)29% (Apr 11, 3:00 pm)29.95 "Hg (Apr 18, 4:30 pm)
Average61 °F70%30.13 "Hg
* Reported Apr 9 2:00 am — Apr 24 2:00 am, Alicante, Weather by CustomWeather, © 2017

Note: Actual official high and low records may vary slightly from our data, if they occured in-between our weather recording intervals... More about our weather records

Advertising

Alicante Weather History for the Previous 24 Hours

Scroll right to see more
 ConditionsComfort  
Time TempWeatherWind HumidityBarometerVisibility
2:00 am
Mon, Apr 24
55 °FClear.6 mph82%30.07 "Hg10 mi
1:30 am57 °FClear.5 mph77%30.07 "Hg10 mi
1:00 am55 °FClear.No wind77%30.07 "Hg10 mi
12:30 am57 °FClear.2 mph77%30.07 "Hg10 mi
12:00 am57 °FClear.2 mph77%30.07 "Hg10 mi
11:30 pm
Sun, Apr 23
59 °FClear.2 mph77%30.07 "Hg10 mi
11:00 pm59 °FPassing clouds.3 mph72%30.07 "HgN/A
10:30 pm59 °FClear.5 mph72%30.04 "Hg10 mi
10:00 pm59 °FPassing clouds.3 mph72%30.04 "HgN/A
9:30 pm59 °FClear.5 mph72%30.04 "Hg10 mi
9:00 pm61 °FPassing clouds.5 mph68%30.04 "HgN/A
8:30 pm61 °FPassing clouds.5 mph68%30.04 "HgN/A
8:00 pm61 °FPassing clouds.6 mph68%30.04 "HgN/A
7:30 pm61 °FPassing clouds.8 mph68%30.04 "HgN/A
7:00 pm63 °FPassing clouds.10 mph64%30.04 "HgN/A
6:30 pm63 °FPassing clouds.9 mph59%30.04 "HgN/A
6:00 pm64 °FPassing clouds.9 mph56%30.04 "HgN/A
5:30 pm64 °FPassing clouds.10 mph56%30.04 "HgN/A
5:00 pm64 °FPassing clouds.10 mph60%30.04 "HgN/A
4:30 pm66 °FPassing clouds.9 mph60%30.04 "HgN/A
4:00 pm64 °FPassing clouds.9 mph56%30.07 "HgN/A
3:00 pm66 °FPassing clouds.8 mph52%30.07 "HgN/A
2:00 pm66 °FPassing clouds.7 mph52%30.09 "HgN/A
1:30 pm64 °FPassing clouds.7 mph52%30.09 "HgN/A
1:00 pm64 °FPassing clouds.7 mph56%30.09 "HgN/A
12:30 pm64 °FSunny.6 mph56%30.09 "Hg10 mi
12:00 pm63 °FPassing clouds.6 mph64%30.09 "HgN/A
11:30 am63 °FSunny.5 mph59%30.09 "Hg10 mi
11:00 am63 °FSunny.5 mph59%30.09 "Hg10 mi
10:30 am61 °FPassing clouds.5 mph63%30.09 "HgN/A
10:00 am61 °FPassing clouds.5 mph63%30.09 "HgN/A
9:30 am59 °FPassing clouds.5 mph68%30.09 "HgN/A
9:00 am59 °FPassing clouds.2 mph63%30.09 "HgN/A
8:30 am55 °FPassing clouds.5 mph72%30.09 "HgN/A
8:00 am52 °FPassing clouds.6 mph82%30.09 "HgN/A
7:30 am50 °FPassing clouds.6 mph82%30.09 "HgN/A
7:00 am50 °FPassing clouds.6 mph82%30.09 "HgN/A
6:30 am50 °FClear.7 mph82%30.09 "Hg10 mi
6:00 am48 °FClear.6 mph87%30.09 "Hg10 mi
5:30 am48 °FClear.6 mph87%30.09 "Hg10 mi
5:00 am48 °FClear.6 mph87%30.09 "Hg10 mi
4:30 am50 °FClear.6 mph88%30.09 "Hg10 mi
3:30 am50 °FPassing clouds.5 mph82%30.12 "HgN/A
3:00 am52 °FPassing clouds.5 mph82%30.12 "HgN/A
Weather by CustomWeather, © 2017

See weather overviewHow to use our weather pages